GW5771 Weather Reports


time (UTC)temp
C
wind
direction
speed
KPH
gust
KPH
rain 1hr
cm
rain 24hr
cm
rain mn
cm
humidity
%
barometer
mb
20260504223106 20 234 4.8 11.3 0.00 0.00 0.00 39 1007.9
20260504222607 20 213 4.8 12.9 0.00 0.00 0.00 39 1007.8
20260504221607 21 218 6.4 19.3 0.00 0.00 0.00 38 1008.0
20260504221105 21 249 1.6 11.3 0.00 0.00 0.00 36 1007.9
20260504220107 21 205 4.8 16.1 0.00 0.00 0.00 34 1007.7
20260504215606 21 205 8.0 14.5 0.00 0.00 0.00 34 1007.6
20260504215105 22 240 8.0 14.5 0.00 0.00 0.00 34 1007.7
20260504214605 22 227 6.4 22.5 0.00 0.00 0.00 34 1007.6
20260504214105 22 272 1.6 12.9 0.00 0.00 0.00 33 1007.5
20260504213606 22 178 4.8 12.9 0.00 0.00 0.00 33 1007.5
20260504213105 22 282 6.4 19.3 0.00 0.00 0.00 33 1007.5
20260504211106 22 252 6.4 16.1 0.00 0.00 0.00 33 1007.7
20260504210605 22 299 4.8 19.3 0.00 0.00 0.00 33 1007.6
20260504210105 22 296 4.8 12.9 0.00 0.00 0.00 33 1007.4
20260504205605 22 310 1.6 14.5 0.00 0.00 0.00 33 1007.3
20260504205107 22 290 6.4 16.1 0.00 0.00 0.00 33 1007.4
20260504204605 22 221 4.8 14.5 0.00 0.00 0.00 33 1007.4
20260504204106 22 218 4.8 11.3 0.00 0.00 0.00 34 1007.4
20260504203606 21 215 4.8 14.5 0.00 0.00 0.00 34 1007.4
20260504203106 21 232 6.4 14.5 0.00 0.00 0.00 33 1007.5
20260504202606 21 309 8.0 19.3 0.00 0.00 0.00 34 1007.3
20260504202106 21 208 8.0 16.1 0.00 0.00 0.00 34 1007.5
20260504201607 21 191 4.8 25.7 0.00 0.00 0.00 34 1007.6
20260504200605 22 245 4.8 14.5 0.00 0.00 0.00 33 1007.6
20260504200105 22 202 4.8 12.9 0.00 0.00 0.00 34 1007.3
20260504194605 20 188 8.0 14.5 0.00 0.00 0.00 34 1007.9
20260504194105 20 232 6.4 14.5 0.00 0.00 0.00 35 1007.5
20260504193605 20 269 4.8 14.5 0.00 0.00 0.00 35 1008.2
20260504192104 21 216 6.4 14.5 0.00 0.00 0.00 34 1008.2
20260504191604 21 240 4.8 12.9 0.00 0.00 0.00 33 1007.9
20260504190605 21 262 9.7 19.3 0.00 0.00 0.00 33 1007.8
20260504185605 21 220 6.4 22.5 0.00 0.00 0.00 34 1007.7
20260504185105 21 223 4.8 19.3 0.00 0.00 0.00 33 1007.7
20260504184105 20 148 4.8 27.4 0.00 0.00 0.00 33 1008.0
20260504183606 21 266 8.0 19.3 0.00 0.00 0.00 32 1008.2
20260504183105 21 212 4.8 19.3 0.00 0.00 0.00 33 1008.0
20260504182106 21 194 8.0 16.1 0.00 0.00 0.00 31 1008.2
20260504181605 21 241 4.8 12.9 0.00 0.00 0.00 32 1007.9
20260504181104 20 208 6.4 16.1 0.00 0.00 0.00 31 1008.1
20260504175606 20 330 4.8 16.1 0.00 0.00 0.00 33 1008.1
20260504175105 20 279 8.0 20.9 0.00 0.00 0.00 32 1008.2
20260504174613 20 170 4.8 16.1 0.00 0.00 0.00 32 1008.2
20260504174105 20 170 4.8 14.5 0.00 0.00 0.00 34 1008.2
20260504173605 20 264 8.0 20.9 0.00 0.00 0.00 34 1008.5
20260504173105 20 258 8.0 19.3 0.00 0.00 0.00 34 1008.4
20260504172605 20 200 8.0 25.7 0.00 0.00 0.00 35 1008.4
20260504171605 20 301 6.4 14.5 0.00 0.00 0.00 35 1008.5
20260504171105 20 208 6.4 22.5 0.00 0.00 0.00 34 1008.4
20260504170605 20 287 6.4 12.9 0.00 0.00 0.00 34 1008.4
20260504170105 20 292 6.4 14.5 0.00 0.00 0.00 33 1008.3
20260504150606 16 330 4.8 16.1 0.00 0.00 0.00 41 1009.7
20260504150106 16 222 6.4 20.9 0.00 0.00 0.00 40 1009.6
20260504141106 15 314 6.4 14.5 0.00 0.00 0.00 41 1009.6
20260504140607 15 219 6.4 14.5 0.00 0.00 0.00 42 1009.4
20260504140106 15 205 4.8 12.9 0.00 0.00 0.00 42 1009.6
20260504130605 13 181 3.2 14.5 0.00 0.00 0.00 47 1010.3
20260504130106 13 262 4.8 12.9 0.00 0.00 0.00 47 1010.3
20260504110606 3 22 0.0 3.2 0.00 0.00 0.00 84 1010.9
20260504110105 3 42 1.6 3.2 0.00 0.00 0.00 87 1011.0
20260504100606 2 38 0.0 0.0 0.00 0.00 0.00 90 1011.8
20260504100106 2 32 0.0 1.6 0.00 0.00 0.00 91 1011.7
20260504081605 3 84 0.0 0.0 0.00 0.00 0.00 86 1011.4
20260504081105 4 84 0.0 0.0 0.00 0.00 0.00 86 1011.3
20260504080105 4 358 0.0 0.0 0.00 0.00 0.00 86 1010.9
20260504060106 3 226 0.0 1.6 0.00 0.00 0.00 82 1011.0
20260504050605 3 30 0.0 0.0 0.00 0.00 0.00 87 1011.1
20260504050105 3 30 0.0 0.0 0.00 0.00 0.00 87 1011.1
20260504045605 3 30 0.0 0.0 0.00 0.00 0.00 87 1011.0
20260504045105 2 30 0.0 0.0 0.00 0.00 0.00 87 1011.1
20260504044605 2 9 0.0 0.0 0.00 0.00 0.00 87 1011.0
20260504044105 2 50 0.0 1.6 0.00 0.00 0.00 87 1011.0
20260504043105 2 115 0.0 1.6 0.00 0.00 0.00 87 1011.1
20260504042605 2 29 0.0 1.6 0.00 0.00 0.00 87 1011.2
20260504040606 1 3 0.0 1.6 0.00 0.00 0.00 86 1011.4
20260504040106 1 16 0.0 1.6 0.00 0.00 0.00 87 1011.4
20260504035604 1 138 0.0 1.6 0.00 0.00 0.00 88 1011.3
20260504035105 1 22 0.0 1.6 0.00 0.00 0.00 88 1011.5
20260504034605 1 132 0.0 1.6 0.00 0.00 0.00 88 1011.5
20260504034105 1 76 0.0 3.2 0.00 0.00 0.00 87 1011.6
20260504032604 1 303 0.0 1.6 0.00 0.00 0.00 85 1011.5
20260504032106 1 38 0.0 1.6 0.00 0.00 0.00 84 1011.5
20260504031605 1 307 1.6 4.8 0.00 0.00 0.00 84 1011.5
20260504031105 1 109 0.0 3.2 0.00 0.00 0.00 83 1011.5
20260504030605 1 30 0.0 3.2 0.00 0.00 0.00 83 1011.5
20260504030105 1 45 0.0 1.6 0.00 0.00 0.00 83 1011.5
20260504025605 1 73 0.0 0.0 0.00 0.00 0.00 82 1011.5
20260504025106 2 73 0.0 0.0 0.00 0.00 0.00 80 1011.5
20260504024605 2 73 0.0 0.0 0.00 0.00 0.00 80 1011.4
20260504024104 2 73 0.0 1.6 0.00 0.00 0.00 80 1011.4
20260504023606 2 42 0.0 1.6 0.00 0.00 0.00 81 1011.4
20260504023105 2 257 0.0 1.6 0.00 0.00 0.00 80 1011.4
20260504022606 2 63 0.0 0.0 0.00 0.00 0.00 80 1011.5
20260504022105 2 63 0.0 1.6 0.00 0.00 0.00 79 1011.4
20260504021606 2 59 0.0 1.6 0.00 0.00 0.00 78 1011.4
20260504021105 2 73 0.0 1.6 0.00 0.00 0.00 77 1011.4
20260504020605 2 48 0.0 0.0 0.00 0.00 0.00 76 1011.4
20260504020106 2 48 0.0 0.0 0.00 0.00 0.00 78 1011.4
20260504015606 2 50 0.0 1.6 0.00 0.00 0.00 77 1011.4
20260504015105 3 90 0.0 0.0 0.00 0.00 0.00 76 1011.3
20260504014604 3 71 0.0 1.6 0.00 0.00 0.00 76 1011.2
20260504014104 3 26 0.0 1.6 0.00 0.00 0.00 74 1011.3
20260504013605 3 27 0.0 1.6 0.00 0.00 0.00 74 1011.2
20260504013105 3 45 0.0 1.6 0.00 0.00 0.00 74 1011.1
20260504012605 3 351 0.0 1.6 0.00 0.00 0.00 73 1011.1
20260504011605 4 226 0.0 1.6 0.00 0.00 0.00 72 1011.1
20260504011106 4 207 0.0 0.0 0.00 0.00 0.00 71 1011.1
20260504010605 4 4 0.0 0.0 0.00 0.00 0.00 70 1011.0
20260504010105 5 4 0.0 0.0 0.00 0.00 0.00 68 1010.9
20260504005605 5 4 0.0 1.6 0.00 0.00 0.00 66 1010.8
20260504005105 5 34 0.0 1.6 0.00 0.00 0.00 65 1010.8
20260504004605 5 81 0.0 0.0 0.00 0.00 0.00 63 1010.6
20260504004105 6 339 0.0 1.6 0.00 0.00 0.00 61 1010.6
20260504003605 6 27 0.0 0.0 0.00 0.00 0.00 61 1010.5
20260504003106 6 27 0.0 1.6 0.00 0.00 0.00 60 1010.5
20260504002605 7 26 0.0 1.6 0.00 0.00 0.00 58 1010.5
20260504002105 7 21 0.0 1.6 0.00 0.00 0.00 55 1010.4
20260504001604 7 269 0.0 0.0 0.00 0.00 0.00 53 1010.2
20260504001104 8 269 0.0 0.0 0.00 0.00 0.00 52 1010.1
20260504000605 8 69 0.0 0.0 0.00 0.00 0.00 51 1010.1
20260503235605 9 64 0.0 3.2 0.00 0.00 0.00 47 1009.8
20260503235104 9 335 1.6 9.7 0.00 0.00 0.00 44 1009.7
20260503234105 10 302 1.6 4.8 0.00 0.00 0.00 43 1009.6
20260503233605 10 329 0.0 8.0 0.00 0.00 0.00 43 1009.5
20260503232605 10 355 3.2 11.3 0.00 0.00 0.00 41 1009.3
20260503232104 10 320 4.8 3.2 0.00 0.00 0.00 41 1009.2
20260503231604 10 337 8.0 14.5 0.00 0.00 0.00 41 1009.2
20260503231105 10 344 4.8 11.3 0.00 0.00 0.00 40 1009.1
20260503230604 11 353 3.2 12.9 0.00 0.00 0.00 40 1008.9
20260503230106 11 343 3.2 11.3 0.00 0.00 0.00 39 1008.7
20260503225605 11 342 3.2 9.7 0.00 0.00 0.00 39 1008.7
20260503225104 11 303 1.6 8.0 0.00 0.00 0.00 40 1008.6
20260503224605 10 344 3.2 11.3 0.00 0.00 0.00 40 1008.7